EHI
21 25 25 17 7 1 0 0 0 0 0 0 0 0 0 0 0 0 0 0 2 4 4 3 1 0 0 0 0 0 0 0 0 0 0 0 0 0 0 0 0 1 0 0 2 3 1 0 0
18 19 17 13 6 1 0 0 0 0 0 0 0 0 0 0 0 0 0 0 1 3 3 2 1 0 0 0 0 0 0 0 0 0 0 0 0 0 0 0 1 1 1 1 2 3 1 0 0
15 12 10 7 3 1 0 0 0 0 0 0 0 0 0 0 0 0 1 0 1 3 3 2 1 0 0 0 0 0 0 0 0 0 0 0 0 0 0 0 1 2 3 3 3 2 1 0 0
14 9 5 3 1 0 0 0 0 0 0 0 0 0 0 0 0 0 0 0 1 3 4 3 1 1 0 0 0 0 0 0 0 0 0 0 0 0 1 0 1 2 3 3 2 2 1 0 0
13 7 2 0 0 0 0 0 0 0 0 0 0 0 0 0 0 0 0 0 1 3 3 3 3 3 1 0 0 0 0 0 0 0 0 0 0 0 0 0 0 1 2 1 1 1 0 0 0
8 4 0 0 0 0 0 0 0 0 0 0 0 0 0 0 0 0 0 0 1 3 3 2 3 4 3 1 0 0 0 0 0 0 0 0 0 0 0 0 0 0 0 0 0 0 0 0 0
3 1 0 0 0 0 0 0 0 0 0 0 0 0 0 0 0 0 0 0 0 2 3 2 2 3 2 1 0 0 0 0 0 0 0 0 0 0 0 0 0 0 0 0 0 0 0 0 0
1 0 0 0 0 0 0 0 0 0 0 0 0 0 1 1 1 1 1 0 0 1 2 1 0 1 1 1 0 0 0 0 0 0 0 0 0 0 0 0 0 0 0 0 0 0 0 0 0
0 0 0 0 0 0 0 0 0 0 0 0 0 0 1 1 2 3 2 1 1 0 1 2 1 1 1 0 0 0 0 0 0 0 0 0 0 0 0 0 0 0 0 0 0 0 0 0 0
0 0 0 0 0 0 0 0 0 0 0 0 0 1 1 0 1 3 3 3 2 1 1 3 3 1 1 0 0 0 0 0 0 0 0 0 0 0 0 0 0 0 0 0 0 0 0 0 0
0 0 0 0 0 0 0 0 0 0 0 0 1 1 1 0 1 2 3 3 3 2 2 4 5 3 1 1 1 0 0 0 0 0 0 0 0 0 0 0 0 0 0 0 0 0 0 0 0
0 0 0 0 0 0 0 0 0 0 0 0 1 1 1 0 0 1 2 3 4 4 4 5 6 5 3 2 2 1 0 0 0 0 0 0 0 0 0 0 0 0 0 0 0 0 0 0 0
0 0 0 0 0 0 0 0 0 0 0 0 1 1 0 0 0 0 2 3 4 5 5 5 6 6 5 4 2 1 0 0 0 0 0 0 0 0 0 0 0 0 0 0 0 0 0 0 0
0 0 0 0 0 0 0 0 0 0 0 1 1 1 1 1 1 0 1 2 4 5 6 5 5 6 5 4 2 1 0 0 0 0 0 0 0 0 0 0 0 0 0 0 0 0 0 0 0
0 0 0 0 0 0 0 0 0 0 0 1 2 1 1 2 1 0 1 2 3 4 5 4 4 5 4 3 3 1 1 0 0 0 0 0 0 0 0 0 0 0 0 0 0 0 0 0 0
0 0 0 0 0 0 0 0 0 0 0 1 1 1 1 2 1 1 2 2 2 3 4 4 4 4 3 3 3 3 2 1 0 0 0 0 0 0 0 0 0 0 0 0 0 0 0 0 0
0 0 0 0 0 0 0 0 0 0 0 0 0 0 0 1 1 1 2 2 2 4 4 3 3 3 3 3 3 3 3 2 1 0 0 0 0 0 0 0 0 0 0 0 0 0 0 0 0
0 0 0 0 0 0 0 0 0 0 0 0 0 0 0 0 0 1 1 1 3 5 4 3 3 3 3 3 3 3 4 3 2 1 0 0 0 0 0 0 0 0 0 0 0 0 0 0 0
0 0 0 0 0 0 0 0 0 0 0 0 0 0 0 0 0 1 2 2 4 5 5 4 4 4 3 3 3 4 4 4 3 2 1 0 0 0 0 1 1 0 0 0 0 0 0 0 0
0 0 0 0 0 0 0 0 0 0 0 0 0 0 0 0 0 2 3 4 4 5 6 5 4 4 4 4 4 4 4 4 3 3 2 1 0 0 0 1 1 0 0 0 0 0 0 0 0
0 0 0 0 0 0 0 0 0 0 0 0 0 0 0 1 2 2 3 4 5 6 7 7 5 4 4 5 5 5 5 4 4 4 3 2 0 0 0 1 1 0 0 0 0 0 0 0 0
0 0 0 0 0 0 0 0 0 0 0 0 0 1 1 2 4 4 5 6 7 8 9 9 7 5 5 7 8 7 6 5 5 4 3 1 0 1 1 2 1 1 1 0 0 0 0 0 0
0 0 0 0 0 0 0 0 0 0 0 0 1 1 2 2 4 5 7 8 10 10 11 11 9 8 8 9 10 9 7 5 4 4 3 2 1 2 3 3 3 2 1 0 0 0 0 0 0
0 0 0 0 0 0 0 0 0 0 1 1 2 2 1 1 2 3 5 6 8 10 10 9 9 9 8 8 8 7 5 4 3 4 5 4 4 3 3 3 3 2 1 0 0 0 0 0 0
0 0 0 0 0 0 0 0 0 0 1 1 2 2 1 1 2 2 2 3 6 8 8 8 7 6 5 4 4 3 3 4 4 5 5 5 4 3 2 3 2 1 0 0 0 0 0 0 0
0 0 0 0 0 0 0 0 0 0 0 1 2 3 2 1 2 1 1 3 5 7 7 6 4 3 2 1 1 1 2 3 3 3 3 3 2 1 1 1 1 1 0 0 0 0 0 0 0
0 0 0 0 0 0 0 0 0 0 0 1 1 3 2 1 2 2 3 4 6 7 6 4 2 1 1 1 0 0 1 2 2 1 1 1 0 0 0 0 0 0 0 0 0 0 0 0 0
0 0 0 0 0 0 0 0 0 0 0 0 1 2 2 1 2 4 6 6 6 6 5 3 1 1 1 1 1 0 1 1 1 0 0 0 0 0 0 0 0 0 0 0 0 1 1 0 0
0 0 0 0 0 0 0 0 0 0 0 1 2 3 2 1 2 5 7 7 6 5 5 4 3 2 3 2 1 0 0 0 0 0 0 0 0 0 0 0 0 0 0 0 0 1 1 0 0
0 0 0 0 0 0 0 0 0 0 0 1 2 3 2 2 3 4 6 6 4 4 5 5 4 3 3 3 2 1 0 0 0 0 0 0 0 0 0 0 0 0 0 0 0 1 1 0 0
Wind_Speed
7 8 5 2 2 1 5 6 7 6 6 8 7 8 11 11 8 7 3 3 5 6 8 8 9 9 8 8 8 8 8 9 8 8 8 8 8 8 7 6 6 7 8 7 7 7 7 7 7
8 6 4 3 2 1 5 6 8 8 7 4 6 9 11 10 10 8 4 3 5 7 8 8 9 9 8 8 8 9 9 8 8 9 8 8 8 8 7 6 7 7 7 7 7 7 8 8 7
10 6 3 2 2 4 6 6 7 7 5 4 6 10 9 7 8 5 4 4 6 8 9 9 9 9 9 8 8 9 9 8 9 8 8 8 8 8 8 7 7 7 7 7 7 7 8 8 7
5 3 2 1 5 8 6 6 5 6 5 5 7 9 10 9 6 6 5 5 7 8 9 9 9 9 9 8 9 9 9 9 9 8 8 9 8 8 8 8 8 8 8 8 7 7 8 7 7
3 2 1 2 6 7 6 6 5 6 5 7 10 10 9 8 8 7 5 6 7 8 8 9 9 9 9 9 9 9 9 10 9 9 9 9 9 9 9 9 9 9 9 8 8 8 7 6 6
3 2 0 3 6 6 5 5 5 7 7 7 9 10 7 7 7 6 6 5 6 7 9 9 9 9 9 10 10 9 10 9 9 8 9 9 9 9 10 10 9 9 9 8 8 8 7 7 6
3 1 2 4 6 5 6 6 6 6 6 6 6 8 7 7 5 6 6 5 5 6 8 7 8 8 9 10 9 9 9 8 8 7 7 8 8 9 9 9 9 9 8 8 7 7 6 6 6
3 1 2 4 5 5 5 5 5 5 5 5 5 7 6 7 5 5 5 5 5 5 6 6 7 7 7 7 8 8 8 6 6 6 5 5 7 8 9 9 9 8 8 7 6 5 5 5 4
3 0 3 4 3 4 4 4 4 4 5 6 8 10 10 9 7 5 4 5 4 5 5 5 5 6 7 6 7 6 6 5 4 3 4 3 2 4 5 8 8 8 7 6 5 4 3 3 2
1 2 3 3 3 3 3 4 3 3 5 6 8 9 10 8 6 5 5 4 4 4 4 4 5 5 5 5 5 3 3 3 2 2 3 2 3 3 6 7 7 6 5 4 3 2 1 1 1
3 3 3 4 4 4 3 3 3 3 3 5 7 8 7 7 6 5 5 5 4 4 3 4 4 5 5 3 3 2 2 1 2 3 3 3 3 2 3 2 3 2 3 1 1 1 0 1 1
4 3 3 4 3 3 2 3 3 4 3 5 6 7 6 5 5 5 5 5 5 5 4 4 4 4 5 4 2 2 2 2 2 2 3 3 2 2 2 2 2 2 1 1 1 1 2 3 4
3 3 3 3 2 2 2 2 3 3 3 6 6 6 5 5 4 5 5 5 6 6 4 4 4 4 4 4 1 3 3 2 3 2 2 3 2 2 2 2 2 2 2 2 2 2 3 4 5
2 3 2 2 2 2 2 2 3 3 4 6 6 5 5 4 5 5 4 4 6 5 5 5 3 3 4 3 2 3 3 3 2 1 2 3 2 2 2 3 3 2 2 2 2 3 3 3 3
2 3 3 2 2 2 2 2 3 5 5 5 6 5 5 5 5 5 4 4 5 5 6 5 3 4 4 4 3 3 2 3 2 2 2 3 3 3 3 3 2 2 2 3 3 3 3 3 3
6 5 3 3 3 3 3 2 4 5 5 5 6 6 5 4 5 5 5 4 4 5 7 6 4 3 4 4 3 2 3 3 3 2 2 3 3 4 4 2 2 3 3 2 2 2 2 3 3
6 4 3 4 4 3 4 2 4 5 5 4 5 6 6 5 4 5 5 4 4 4 5 7 5 4 4 3 3 3 3 3 3 2 2 3 3 4 3 2 2 3 3 2 3 3 3 3 3
3 3 2 3 4 3 4 3 5 6 6 5 5 5 6 7 6 5 5 5 4 3 3 6 6 4 4 2 2 3 3 3 2 2 2 3 2 3 3 1 3 3 3 3 3 3 3 2 2
5 5 4 1 2 2 4 4 4 6 6 5 5 5 5 5 7 6 6 6 5 4 3 5 6 5 3 2 2 2 2 2 2 2 3 2 2 3 3 2 3 2 2 2 3 2 2 2 2
6 6 5 2 1 3 5 5 4 6 6 6 5 5 5 5 6 6 6 6 5 4 3 5 5 5 4 2 2 2 2 2 2 1 2 2 3 3 2 2 2 2 2 3 2 2 2 1 1
7 5 5 4 4 5 6 6 5 7 7 6 4 4 5 6 7 7 6 5 5 4 3 3 5 5 5 4 2 2 2 2 2 1 1 2 3 2 2 2 2 2 2 2 1 1 2 1 1
5 3 5 6 4 4 4 3 4 6 7 6 5 4 3 4 5 6 6 6 5 4 2 3 4 4 5 4 3 3 2 1 1 2 2 1 2 2 2 2 2 2 2 2 1 2 1 1 0
4 5 7 8 7 7 7 6 3 7 7 7 7 6 4 4 5 6 6 6 5 4 3 2 4 4 4 3 3 2 2 1 1 2 2 1 1 2 2 2 1 1 1 1 2 2 1 1 1
5 7 9 7 6 7 8 6 2 4 5 6 6 7 6 5 6 6 6 6 5 5 3 3 3 3 3 3 3 3 2 2 2 2 2 1 1 1 1 1 0 1 1 1 1 1 1 0 0
7 6 4 4 5 5 4 3 2 5 5 4 4 5 7 6 7 6 6 6 6 5 4 3 4 3 2 2 2 3 2 2 3 2 2 1 1 1 1 1 0 1 1 1 1 0 1 1 1
6 7 4 4 3 2 2 2 4 6 6 5 4 4 6 7 6 7 7 6 6 6 5 4 4 3 3 2 2 2 3 2 1 1 2 2 1 1 2 1 1 1 1 1 1 0 1 0 1
6 5 5 7 8 6 3 2 4 6 6 5 4 4 5 6 7 7 7 6 6 6 5 4 4 3 3 3 2 2 2 2 1 1 1 1 1 1 2 1 1 2 1 1 1 1 1 1 1
7 7 5 4 4 5 4 2 4 6 5 4 3 3 4 5 5 6 6 6 5 5 5 4 4 4 3 2 2 1 2 2 2 1 1 1 1 1 2 2 1 1 2 2 1 1 1 1 1
6 6 6 5 5 4 4 1 3 5 5 4 3 3 3 4 5 5 5 5 5 5 5 4 4 4 3 3 2 2 2 2 2 2 1 1 1 1 2 2 1 1 1 1 1 1 2 2 2
5 6 6 5 5 5 4 1 4 5 5 4 3 2 3 4 4 4 5 5 5 5 5 4 4 4 4 3 3 2 2 2 2 2 2 2 2 1 1 1 1 2 1 1 1 2 2 2 2
Wind_Direction
256 248 248 252 257 217 65 62 63 51 54 48 46 55 61 49 47 79 104 68 77 86 90 75 60 57 54 52 52 54 57 56 58 62 63 62 60 54 54 65 73 80 80 75 69 66 68 67 61
273 269 265 242 251 85 75 73 70 61 63 63 59 66 69 61 66 91 101 82 89 85 81 73 63 60 58 57 56 56 61 59 62 64 64 63 60 55 55 68 77 85 87 83 76 71 71 70 67
264 266 267 267 3 60 78 77 79 77 65 67 70 61 57 61 68 90 117 117 95 87 86 80 69 64 61 62 63 61 61 61 63 63 64 64 63 58 61 72 78 83 85 81 76 75 76 71 66
260 260 248 24 61 67 84 97 99 89 72 65 76 72 68 60 78 104 120 112 100 97 95 92 81 74 70 70 69 66 65 66 65 65 68 66 65 62 64 74 77 79 80 79 77 79 77 74 66
249 255 223 85 76 76 74 78 81 82 72 66 81 88 83 79 90 100 103 97 100 103 104 104 97 90 83 79 74 72 71 70 68 69 71 70 70 73 71 74 76 76 76 74 75 76 76 73 65
271 253 318 86 87 77 68 70 79 80 84 79 89 99 94 99 96 102 99 95 97 105 109 112 113 105 96 88 81 76 75 77 76 75 73 74 75 76 76 75 77 77 76 75 74 73 71 67 62
278 306 86 93 91 89 77 60 58 69 71 69 86 99 112 109 111 112 105 102 104 108 118 126 130 121 111 101 96 90 87 86 87 86 80 82 85 87 86 82 78 77 77 79 80 81 78 68 60
283 294 90 89 89 85 80 73 68 67 74 68 71 95 118 125 130 121 120 111 109 107 109 121 130 131 128 120 113 110 106 104 104 106 101 96 99 99 95 89 84 83 83 81 80 83 83 72 64
268 301 73 73 86 94 99 93 81 85 88 76 72 93 116 128 129 124 121 112 105 107 113 118 119 125 127 128 126 132 129 134 133 136 140 129 112 104 99 94 97 92 86 82 82 84 88 80 65
143 67 72 68 83 97 94 94 102 106 94 96 97 106 121 131 136 137 125 119 117 107 104 114 124 124 114 112 128 146 131 144 160 119 121 122 91 81 94 103 108 106 102 95 87 83 86 65 47
87 94 71 68 66 82 91 99 93 94 102 109 121 123 131 143 150 144 129 119 110 101 93 102 105 107 108 100 105 97 98 111 105 92 91 83 88 105 108 126 132 128 128 96 95 87 77 93 84
109 97 82 74 68 85 84 78 72 78 89 102 111 127 142 153 151 140 124 130 126 108 95 91 95 100 104 104 105 113 105 79 63 56 80 80 67 75 85 88 86 79 72 55 41 44 36 47 52
124 110 104 103 114 124 116 104 99 100 111 119 124 136 151 150 134 116 119 122 116 111 114 98 90 95 101 103 127 109 99 89 82 57 70 87 78 66 72 81 71 76 72 58 38 35 44 48 39
101 104 118 146 147 150 140 146 151 145 154 145 145 149 153 135 127 120 120 124 119 128 125 109 110 104 108 111 98 90 101 103 87 65 86 94 91 84 64 65 62 59 61 74 57 57 57 55 58
183 180 181 191 180 152 175 194 170 155 169 161 156 155 154 146 142 139 135 127 128 134 120 107 106 98 96 94 78 84 83 90 85 59 55 83 88 87 75 66 67 62 53 61 51 51 64 70 65
221 216 195 185 191 177 221 220 146 159 180 174 167 160 160 155 157 144 136 126 123 134 129 129 126 115 105 96 90 84 87 82 78 55 34 48 63 82 76 67 66 68 57 59 61 58 72 75 70
230 224 193 166 193 205 226 225 174 180 189 187 182 166 162 163 161 143 131 127 121 121 132 136 124 115 103 105 122 89 91 88 83 75 45 42 47 74 81 67 67 75 62 49 50 52 80 89 91
276 284 247 186 181 219 245 239 183 180 200 204 186 173 170 166 161 146 133 122 118 119 130 128 118 119 116 109 106 97 84 81 81 80 69 50 47 67 78 68 69 66 63 57 59 58 67 87 87
301 294 288 238 201 249 260 256 202 179 197 207 195 184 173 160 150 139 134 137 134 137 132 124 131 129 118 112 106 109 102 102 86 78 79 56 58 68 72 69 70 71 72 69 72 76 71 68 88
274 277 283 254 234 264 265 260 220 183 196 209 204 185 173 159 146 141 147 139 132 128 136 137 129 127 124 123 115 122 122 115 103 81 81 66 59 60 68 78 87 84 83 72 71 79 60 36 44
267 282 309 316 314 277 272 258 213 185 190 186 195 185 170 163 156 155 149 133 129 130 145 131 130 133 134 127 110 96 81 73 88 102 89 68 69 55 55 72 87 97 106 112 109 83 84 89 360
284 322 301 288 283 274 254 277 211 189 182 177 181 187 168 151 144 143 140 133 135 133 140 134 128 128 124 125 125 131 140 145 151 138 130 119 110 104 80 74 72 79 91 101 101 86 97 101 83
296 302 287 281 279 278 260 251 211 172 182 181 178 171 160 145 141 138 132 130 128 122 115 105 107 112 113 125 133 140 142 165 148 127 120 131 122 110 94 90 94 113 111 123 94 79 57 108 112
281 273 267 255 256 258 251 243 194 180 169 161 161 163 160 150 138 131 125 126 122 116 114 101 99 101 118 149 155 169 162 159 144 142 144 142 116 94 81 76 85 113 101 98 111 129 128 113 75
248 264 271 238 219 237 233 228 145 115 114 123 144 153 150 146 141 138 134 139 138 137 139 134 125 130 154 175 174 179 164 155 138 140 136 135 142 142 153 131 153 99 98 129 115 173 224 164 183
260 259 262 282 283 297 239 219 119 114 115 122 130 136 141 144 143 144 143 144 144 146 152 156 151 157 166 184 187 179 141 122 112 144 142 156 165 177 159 153 151 133 155 179 159 226 257 215 210
274 269 275 277 286 286 252 143 135 129 116 117 127 133 139 144 145 146 146 152 152 151 156 163 159 166 169 186 188 150 127 124 131 160 128 140 166 166 145 168 179 160 172 210 160 210 263 281 230
258 288 294 281 286 284 272 218 161 138 130 133 127 123 133 142 142 147 147 152 150 150 161 170 173 178 172 175 182 177 154 148 155 178 154 189 199 169 154 183 202 175 189 196 170 200 237 271 291
228 242 256 268 268 274 291 38 91 127 127 126 114 127 143 145 148 150 145 150 146 148 167 179 180 175 169 180 194 189 171 174 171 171 177 212 212 185 184 182 186 158 221 198 164 219 223 222 239
276 268 271 272 282 290 295 61 94 96 101 109 112 124 131 138 140 142 144 152 150 159 175 184 187 177 173 185 194 202 183 179 181 180 184 219 235 211 199 183 197 176 205 207 203 231 239 223 235